Location: Dehesa de la Cepeda
(40.6574°N, 4.3013°W)
Time: 04:54:24
(UTC+00:00)

Courier 1B Rocket - Pass Details

Date: 31 July 2021
Orbit: 920 x 1202 km, 28.3° (Epoch: 19 September)

Event Time Altitude Azimuth Distance (km) Brightness Sun altitude
Exits shadow 04:09:24 14° 228° (SW) 2,369 6.4 -11.2°
Maximum altitude 04:13:29 26° 180° (S) 1,731 6.0 -10.6°
Drops below altitude 10° 04:18:33 10° 126° (SE) 2,606 7.5 -9.8°
Sets 04:21:32 0° 114° (ESE) 3,545 8.4 -9.3°
